Temp
67 67 70 70 72 74 75 76 76 76 76 78 77 76 77 76 78 78 78 77 77 77 77 77 78 78 78 78 77 78 78 77 77 76 76 77 78 79 79 78 77 77 78
69 71 70 70 72 73 75 76 76 76 75 76 78 78 77 77 78 77 77 77 77 77 77 77 77 77 77 77 77 77 77 76 75 75 74 74 75 78 78 77 76 76 77
69 71 71 71 72 73 74 75 75 75 75 75 75 77 77 76 76 76 75 76 77 76 77 76 76 76 76 75 75 76 76 76 75 74 74 72 73 77 77 77 77 78 78
69 73 72 74 74 73 74 75 74 75 75 74 75 75 75 74 73 73 73 75 75 75 75 75 75 75 74 74 75 76 76 75 75 74 73 74 76 76 77 76 78 77 77
68 72 72 74 75 73 73 73 74 75 75 74 74 73 73 73 72 72 72 74 73 73 73 74 74 73 73 73 74 74 75 75 74 74 73 73 73 75 76 76 76 76 77
71 71 72 73 72 72 72 71 73 74 74 71 70 71 70 71 71 71 71 72 72 72 72 72 72 71 71 71 73 73 73 75 73 73 72 72 72 75 75 75 75 75 75
67 70 70 72 72 72 72 71 70 72 73 70 69 71 71 71 71 72 71 71 71 71 71 71 71 70 70 70 71 71 71 72 71 70 69 70 72 74 74 74 74 74 75
67 66 69 71 71 71 71 70 69 68 70 69 68 72 72 72 71 71 71 71 71 70 70 70 69 69 68 68 69 70 70 71 69 67 65 64 71 73 74 74 74 74 74
67 65 67 66 69 70 70 70 70 70 69 70 71 71 70 70 70 70 70 69 69 69 68 68 67 67 67 67 68 69 69 69 63 64 67 63 71 73 73 73 73 73 73
64 63 65 65 66 64 65 68 68 69 69 68 68 68 67 67 68 68 67 67 67 67 67 66 66 65 65 65 66 67 67 67 60 61 60 63 71 72 72 72 72 72 72
62 61 63 63 61 62 64 66 67 67 67 66 65 65 64 62 61 61 64 65 65 65 64 64 64 64 64 64 66 66 65 58 58 58 58 69 71 73 72 72 71 71 71
58 59 60 61 57 58 62 63 62 61 59 60 61 61 61 60 59 60 61 62 63 62 62 63 63 65 61 54 54 61 56 57 56 57 59 70 70 70 70 69 68 68 68
58 60 59 59 58 56 57 58 57 56 57 57 58 58 58 56 55 53 53 53 52 57 54 57 54 52 53 53 52 52 54 54 56 56 64 68 69 68 68 67 67 67 67
58 60 59 59 59 58 57 55 57 54 55 52 55 55 53 52 53 52 52 52 52 53 53 53 52 52 52 53 54 53 54 54 57 55 60 65 66 67 66 66 65 65 65
58 59 60 60 60 59 58 57 54 55 53 54 52 54 52 50 51 51 50 49 49 52 51 50 51 51 50 52 53 54 53 53 53 53 53 61 62 62 63 63 63 63 63
60 59 60 61 61 58 56 56 54 53 52 54 53 51 53 51 50 49 49 48 48 48 49 49 50 49 49 50 51 52 51 51 52 51 51 54 58 58 59 60 60 60 60
61 60 60 61 61 58 56 55 55 52 52 52 54 54 53 51 51 49 47 47 47 49 49 49 49 49 48 50 48 50 50 50 50 50 50 49 50 55 56 57 57 57 58
61 60 61 62 59 56 53 53 53 51 50 49 50 52 54 53 51 49 47 47 49 48 48 47 46 45 46 46 46 47 48 49 49 49 50 49 47 49 52 53 54 54 55
60 60 59 60 59 55 52 51 50 50 49 48 48 48 50 53 53 51 47 46 47 47 46 48 45 46 44 45 48 46 47 47 48 51 47 47 48 47 45 53 52 52 52
59 58 60 59 58 57 55 53 51 49 48 46 46 49 50 50 51 50 50 48 47 44 44 44 44 44 44 44 51 47 44 45 45 45 45 48 46 46 44 45 43 45 52
56 56 59 57 56 56 53 52 50 46 42 42 45 48 49 49 48 49 49 49 48 44 44 45 42 42 40 42 40 40 40 44 43 44 44 43 45 45 44 43 42 41 43
54 55 58 56 54 52 52 52 51 46 41 41 44 46 47 48 47 46 48 47 48 46 44 43 43 40 38 40 38 37 33 37 40 44 43 45 42 44 44 44 43 42 40
53 56 56 56 55 52 51 50 49 47 43 40 41 42 44 46 46 47 47 47 46 46 43 41 41 40 35 37 39 37 34 33 35 39 40 41 41 40 40 42 43 43 42
50 53 55 55 54 53 51 50 48 42 36 37 37 41 42 44 44 45 46 46 46 45 43 42 43 38 37 34 36 42 37 35 33 30 36 38 40 42 39 39 40 42 41
48 49 50 53 52 52 51 50 47 43 43 42 41 40 40 41 42 43 44 44 43 43 43 40 42 40 37 36 35 35 35 34 35 32 29 31 36 38 38 39 38 38 41
40 44 48 50 50 50 50 49 46 44 41 39 38 37 38 38 39 40 41 41 42 42 41 41 38 41 39 36 36 36 35 33 32 31 29 30 31 34 37 37 38 37 38
MSLP
1009.21 1009.54 1009.72 1009.89 1009.88 1009.98 1009.99 1010.15 1010.37 1010.65 1010.98 1010.99 1011.24 1011.36 1011.25 1011.35 1011.62 1011.63 1012.28 1012.78 1012.82 1012.85 1012.87 1013.05 1013.16 1013.23 1013.25 1013.46 1013.72 1013.72 1013.84 1014.07 1014.27 1014.44 1014.67 1014.66 1014.68 1014.81 1014.89 1014.90 1015.08 1014.96 1015.11
1009.10 1009.35 1009.85 1009.91 1010.00 1009.99 1009.96 1010.11 1010.27 1010.53 1010.96 1011.09 1011.03 1011.20 1011.44 1011.56 1011.71 1012.33 1012.84 1013.03 1013.16 1013.21 1013.26 1013.38 1013.57 1013.56 1013.88 1014.00 1014.20 1014.31 1014.45 1014.55 1014.71 1014.79 1015.05 1015.17 1015.22 1015.25 1015.34 1015.37 1015.54 1015.65 1015.56
1009.33 1009.57 1009.71 1009.66 1009.84 1009.91 1009.91 1009.90 1010.15 1010.48 1010.74 1011.09 1011.27 1011.32 1011.63 1011.88 1012.20 1012.49 1013.26 1013.40 1013.40 1013.52 1013.68 1013.78 1013.99 1014.19 1014.46 1014.62 1014.75 1014.89 1014.95 1015.09 1015.13 1015.26 1015.41 1015.64 1015.69 1015.57 1015.62 1015.76 1015.78 1015.96 1015.99
1009.49 1009.29 1009.33 1009.22 1009.46 1009.70 1009.81 1009.84 1010.02 1010.28 1010.50 1010.92 1011.16 1011.46 1011.84 1011.98 1012.39 1013.02 1013.36 1013.55 1014.00 1014.04 1014.12 1014.24 1014.54 1014.72 1015.02 1015.18 1015.18 1015.31 1015.28 1015.39 1015.52 1015.70 1015.92 1016.09 1016.11 1016.19 1016.18 1016.16 1016.11 1016.29 1016.46
1009.48 1009.30 1009.47 1009.10 1009.20 1009.70 1009.93 1009.82 1009.88 1010.22 1010.37 1010.80 1011.21 1011.73 1011.90 1012.23 1012.86 1013.19 1013.67 1014.27 1014.51 1014.74 1014.78 1014.92 1015.18 1015.41 1015.61 1015.68 1015.63 1015.72 1015.78 1015.79 1015.92 1016.03 1016.26 1016.55 1016.61 1016.74 1016.77 1016.79 1016.91 1016.91 1016.92
1009.57 1009.51 1009.68 1009.54 1009.63 1009.96 1010.11 1010.10 1010.03 1010.40 1010.82 1011.43 1011.03 1011.55 1011.70 1012.60 1013.12 1014.15 1014.16 1014.32 1014.97 1015.32 1015.40 1015.61 1015.79 1016.10 1016.18 1016.24 1016.24 1016.16 1016.02 1015.99 1016.22 1016.51 1016.76 1017.08 1017.23 1017.22 1017.49 1017.57 1017.63 1017.54 1017.48
1009.86 1009.73 1009.89 1009.89 1009.99 1010.37 1010.48 1010.53 1009.96 1009.63 1011.01 1011.86 1011.10 1011.73 1012.70 1012.96 1013.85 1013.98 1014.36 1015.16 1015.43 1015.75 1015.92 1016.20 1016.41 1016.60 1016.72 1016.79 1016.82 1016.70 1016.51 1016.43 1016.61 1017.11 1017.68 1017.93 1017.86 1017.89 1017.96 1017.96 1018.02 1017.99 1018.01
1010.16 1010.16 1010.00 1010.12 1010.28 1010.77 1011.02 1011.07 1010.53 1011.25 1012.01 1012.58 1012.30 1012.54 1012.96 1013.70 1014.16 1014.66 1014.88 1015.68 1015.89 1016.00 1016.34 1016.68 1016.98 1017.14 1017.19 1017.28 1017.40 1017.33 1017.23 1017.07 1017.36 1017.78 1018.36 1018.51 1018.34 1018.34 1018.39 1018.40 1018.46 1018.49 1018.59
1010.25 1010.53 1010.31 1010.46 1010.56 1011.01 1011.33 1011.55 1011.16 1011.51 1012.21 1012.52 1013.03 1013.44 1013.72 1014.25 1014.30 1014.71 1015.62 1016.12 1016.30 1016.70 1016.93 1017.21 1017.59 1017.61 1017.82 1017.81 1017.99 1017.95 1017.93 1017.85 1018.11 1018.53 1018.79 1018.96 1018.76 1018.76 1018.80 1018.86 1018.99 1019.07 1019.16
1010.45 1010.79 1010.84 1010.76 1010.81 1011.39 1011.91 1012.10 1012.03 1012.10 1012.00 1012.13 1013.23 1014.13 1014.52 1014.21 1014.93 1015.85 1016.36 1016.85 1016.97 1017.20 1017.36 1017.93 1018.20 1018.21 1018.36 1018.40 1018.45 1018.44 1018.43 1018.56 1018.82 1019.07 1019.39 1019.29 1019.09 1019.10 1019.16 1019.32 1019.46 1019.56 1019.62
1010.71 1011.03 1011.10 1011.26 1011.35 1011.54 1011.84 1012.21 1012.27 1012.11 1012.35 1012.87 1013.84 1014.80 1015.22 1015.67 1016.17 1016.86 1017.12 1017.40 1017.31 1017.70 1018.01 1018.40 1018.70 1018.81 1018.87 1018.75 1018.77 1018.75 1018.77 1019.10 1019.30 1019.55 1019.76 1019.45 1019.24 1019.22 1019.47 1019.66 1019.87 1020.08 1020.25
1010.76 1011.18 1011.43 1011.65 1011.91 1011.73 1011.91 1012.50 1012.69 1012.98 1013.26 1013.74 1014.72 1015.44 1015.58 1016.34 1016.94 1017.29 1017.32 1017.67 1018.03 1018.28 1018.58 1018.67 1018.90 1018.83 1019.09 1019.26 1019.23 1019.16 1019.32 1019.55 1019.83 1019.90 1019.80 1019.53 1019.63 1019.81 1020.19 1020.43 1020.59 1020.78 1020.99
1010.38 1011.07 1011.61 1011.96 1012.17 1012.32 1012.31 1012.82 1013.48 1013.62 1014.13 1014.75 1015.14 1015.42 1015.92 1016.80 1017.46 1017.88 1017.42 1018.04 1018.92 1018.92 1019.08 1019.08 1019.40 1019.44 1019.52 1019.61 1019.78 1019.79 1019.71 1019.97 1020.22 1020.48 1020.07 1019.96 1020.19 1020.48 1020.78 1021.07 1021.22 1021.30 1021.49
1009.84 1010.38 1011.38 1012.04 1012.39 1012.70 1012.96 1013.28 1013.54 1014.32 1014.60 1015.07 1015.36 1015.95 1016.44 1016.84 1017.35 1017.64 1017.54 1017.91 1019.04 1018.98 1019.16 1019.35 1019.62 1019.78 1019.79 1019.91 1020.02 1020.22 1020.15 1020.22 1020.58 1021.07 1020.92 1020.80 1020.84 1021.09 1021.33 1021.64 1021.74 1021.91 1022.04
1009.67 1010.08 1010.33 1011.22 1011.95 1012.61 1013.06 1013.27 1013.78 1014.34 1014.86 1015.10 1015.62 1016.29 1016.68 1017.35 1017.58 1017.55 1018.38 1019.08 1019.27 1019.14 1019.36 1019.65 1019.79 1019.92 1020.10 1020.30 1020.39 1020.54 1020.58 1020.81 1021.32 1021.58 1021.59 1021.76 1021.91 1022.11 1022.33 1022.37 1022.35 1022.41 1022.60
1009.01 1009.79 1010.22 1010.55 1011.10 1011.86 1012.83 1013.39 1013.80 1014.22 1014.60 1015.06 1015.72 1016.25 1016.65 1017.19 1017.72 1018.34 1018.91 1019.31 1019.33 1019.40 1019.70 1019.81 1020.05 1020.33 1020.47 1020.75 1020.91 1021.06 1021.13 1021.30 1021.68 1022.13 1022.41 1022.68 1022.85 1022.91 1023.02 1023.04 1023.07 1023.06 1023.04
1008.13 1009.08 1010.00 1010.32 1010.77 1011.38 1012.03 1012.81 1013.53 1014.06 1014.49 1015.03 1015.70 1016.13 1016.74 1017.32 1017.76 1018.43 1018.84 1019.28 1019.50 1019.70 1019.77 1020.07 1020.32 1020.59 1020.85 1021.14 1021.38 1021.54 1021.63 1021.92 1022.17 1022.63 1022.91 1023.28 1023.50 1023.49 1023.57 1023.64 1023.71 1023.59 1023.50
1007.48 1008.32 1009.25 1010.14 1010.79 1011.47 1012.00 1012.52 1013.17 1013.97 1014.73 1015.33 1015.73 1016.22 1016.70 1017.23 1017.75 1018.17 1018.73 1019.20 1019.43 1019.77 1020.02 1020.35 1020.57 1020.93 1021.10 1021.39 1021.69 1021.81 1022.04 1022.17 1022.45 1022.68 1022.99 1023.45 1023.78 1023.90 1023.97 1024.16 1024.10 1024.02 1023.89
1006.77 1007.93 1008.81 1009.70 1010.70 1011.51 1012.16 1012.83 1013.30 1013.79 1014.46 1015.13 1015.73 1016.37 1016.68 1016.93 1017.36 1018.10 1018.62 1019.16 1019.46 1019.61 1020.21 1020.35 1020.73 1020.84 1021.43 1021.47 1021.83 1021.97 1022.36 1022.46 1022.68 1022.94 1023.35 1023.66 1023.85 1024.04 1024.29 1024.27 1024.50 1024.29 1024.25
1006.58 1007.52 1008.51 1009.46 1010.45 1011.36 1012.27 1012.95 1013.66 1014.25 1014.71 1015.14 1015.65 1016.13 1016.47 1016.80 1017.23 1017.79 1018.41 1018.95 1019.23 1019.66 1020.22 1020.60 1020.86 1021.14 1021.49 1021.73 1021.81 1022.48 1022.63 1022.68 1022.85 1023.22 1023.57 1023.76 1024.08 1024.26 1024.46 1024.64 1024.60 1024.49 1024.37
1006.75 1007.52 1008.41 1009.33 1010.33 1011.23 1011.98 1012.83 1013.72 1014.45 1015.18 1015.64 1015.89 1016.18 1016.47 1016.88 1017.28 1017.86 1018.24 1018.63 1018.95 1019.39 1020.11 1020.52 1021.03 1021.36 1021.92 1021.80 1022.26 1023.03 1023.16 1023.07 1023.25 1023.35 1023.47 1023.92 1024.22 1024.31 1024.48 1024.66 1024.80 1024.93 1024.80
1007.02 1007.66 1008.41 1009.42 1010.41 1011.22 1012.04 1012.80 1013.58 1014.68 1015.58 1016.06 1016.40 1016.74 1016.88 1017.09 1017.39 1017.87 1018.30 1018.61 1018.92 1019.36 1019.88 1020.34 1020.79 1021.61 1022.07 1022.08 1022.45 1023.08 1023.41 1023.72 1023.49 1023.42 1023.33 1023.76 1024.30 1024.10 1024.27 1024.66 1024.84 1025.07 1025.21
1007.68 1007.79 1008.34 1009.31 1010.36 1011.32 1012.09 1012.94 1013.80 1014.76 1015.78 1016.64 1016.91 1017.02 1017.24 1017.31 1017.66 1017.95 1018.24 1018.40 1018.98 1019.41 1019.86 1020.30 1020.74 1021.08 1021.73 1022.22 1022.29 1022.29 1022.80 1023.36 1023.64 1023.73 1023.62 1023.76 1024.13 1024.38 1024.46 1024.78 1024.98 1024.96 1025.11
1008.99 1008.67 1008.59 1008.98 1010.02 1011.18 1012.09 1012.80 1013.52 1014.37 1015.56 1016.19 1016.82 1017.21 1017.49 1017.66 1018.02 1018.13 1018.35 1018.64 1018.97 1019.54 1019.96 1020.30 1020.47 1020.76 1021.27 1022.13 1022.33 1022.30 1022.73 1023.05 1023.56 1024.44 1024.35 1024.21 1024.41 1024.27 1024.66 1024.73 1024.85 1024.98 1024.96
1010.15 1009.78 1009.57 1009.58 1009.94 1010.76 1011.94 1012.71 1013.47 1014.46 1015.26 1015.84 1016.61 1017.29 1017.94 1018.39 1018.47 1018.43 1018.80 1019.27 1019.56 1019.90 1020.15 1020.39 1020.58 1020.77 1020.95 1021.69 1022.25 1022.67 1022.98 1023.02 1023.35 1023.79 1024.47 1024.47 1024.32 1024.43 1024.50 1024.63 1024.70 1024.97 1024.97
1011.30 1010.93 1010.55 1010.42 1010.59 1010.95 1011.57 1012.47 1013.37 1014.22 1015.01 1015.88 1016.73 1017.39 1017.89 1018.27 1018.65 1018.94 1019.02 1019.47 1019.66 1019.92 1020.28 1020.61 1020.46 1020.85 1020.82 1021.41 1021.92 1022.30 1022.73 1023.17 1023.45 1023.86 1024.42 1024.57 1024.64 1024.67 1024.43 1024.71 1024.83 1025.05 1025.12
Wind_Speed
3 7 5 3 3 1 4 4 9 12 9 11 11 12 13 10 12 14 13 13 12 13 14 14 15 17 19 18 18 17 18 19 19 18 15 16 16 18 19 18 16 14 19
7 5 4 4 4 3 4 5 6 6 7 8 12 14 15 14 13 14 12 14 15 15 14 16 16 20 19 18 18 18 17 17 17 16 15 13 14 17 18 17 16 15 19
5 3 6 8 8 7 5 7 4 7 10 13 13 14 15 15 14 16 14 15 17 15 15 16 17 20 19 17 16 16 15 11 10 15 15 8 9 17 17 15 16 17 18
4 3 4 7 10 8 6 6 6 10 12 14 15 17 18 19 20 19 17 18 16 17 17 17 20 20 17 15 14 16 20 19 17 16 10 10 12 19 20 19 18 18 17
5 7 6 8 10 10 4 5 12 12 13 14 16 17 19 21 21 23 21 18 17 16 16 18 19 18 16 14 14 14 14 14 16 14 12 11 8 16 19 19 18 18 17
6 8 10 13 14 12 21 21 5 12 10 11 17 25 25 23 23 21 21 17 16 15 16 16 17 15 15 14 13 15 16 12 11 11 13 13 10 16 17 16 16 16 17
6 6 7 14 15 13 14 19 24 10 15 19 20 25 24 22 19 20 20 16 16 15 16 16 15 15 15 14 13 14 16 14 9 12 11 8 9 14 15 16 15 15 15
8 6 7 11 15 15 16 19 27 22 22 22 19 22 23 22 20 18 19 15 15 16 15 15 15 15 15 15 13 14 15 12 9 10 9 5 11 13 14 15 15 16 16
8 5 6 7 12 17 18 19 23 26 22 19 18 18 21 19 19 19 16 15 15 15 15 15 13 14 14 14 14 13 14 15 8 8 9 4 11 12 13 14 14 15 15
6 5 5 7 8 8 9 17 21 21 22 25 19 17 15 18 18 15 15 14 15 14 15 14 13 14 14 13 12 10 8 10 7 8 5 4 11 12 13 13 13 14 15
5 7 4 6 6 7 8 10 14 21 22 23 19 17 12 7 9 9 14 14 15 14 14 14 13 13 13 13 11 9 10 4 7 5 3 8 12 16 16 17 18 17 15
7 9 4 6 5 5 5 6 9 9 8 8 9 8 7 8 6 9 12 15 14 14 13 12 9 10 7 4 4 8 3 6 5 4 1 11 18 18 17 16 16 16 14
9 8 8 7 6 5 5 5 3 4 5 5 6 6 10 7 5 3 5 5 2 7 3 5 6 4 6 4 4 4 5 5 5 5 7 16 18 17 15 13 13 13 12
13 10 12 9 8 6 4 4 6 4 4 3 5 7 5 4 4 4 3 6 1 2 4 5 3 4 6 7 6 5 5 5 6 4 8 17 16 15 15 14 14 13 13
14 12 15 14 10 8 7 5 5 5 4 5 5 5 5 4 3 5 5 3 3 3 4 4 4 4 6 6 6 6 6 7 8 5 4 17 17 16 13 13 12 12 12
15 15 13 15 13 11 7 6 5 5 6 7 5 5 6 5 5 5 4 4 4 4 4 4 4 4 4 5 6 6 6 6 7 8 6 7 14 14 12 11 11 11 10
15 17 15 14 13 13 10 8 6 5 6 5 6 7 7 6 6 6 5 4 4 3 6 4 4 4 5 4 6 5 5 6 6 7 7 5 6 12 11 10 10 11 10
13 19 17 13 11 9 7 7 6 6 5 5 5 4 7 7 7 6 5 4 5 4 4 4 3 4 4 5 3 4 4 5 6 6 5 4 4 4 8 9 9 10 10
10 15 17 15 14 10 8 5 6 8 6 5 5 5 6 6 7 5 5 5 5 5 4 3 3 4 3 4 5 4 3 4 4 4 6 6 5 5 3 6 5 8 9
9 10 14 12 12 12 8 6 5 5 4 5 5 5 7 6 7 6 6 5 5 5 4 4 3 3 3 4 5 4 3 3 3 4 5 5 4 4 4 3 3 4 6
8 9 13 13 11 9 8 8 7 6 3 3 3 6 6 5 5 7 6 5 5 6 6 6 4 5 3 2 5 3 1 3 2 3 4 4 4 3 4 4 3 3 4
6 7 11 12 11 7 5 5 4 5 3 4 3 4 4 5 6 7 7 5 4 5 6 6 5 4 2 1 3 3 3 2 1 3 3 3 4 3 2 4 4 4 3
4 6 8 12 11 8 7 5 6 6 6 3 3 4 4 5 5 4 5 5 6 4 4 4 4 5 4 1 3 3 2 2 3 0 2 2 3 2 3 3 3 4 3
10 8 2 10 12 9 9 7 10 6 6 4 4 4 4 4 4 5 4 5 5 4 5 4 3 3 5 4 3 3 4 3 3 1 2 2 3 2 3 2 3 2 4
8 7 7 4 8 10 9 7 6 7 4 6 6 9 6 4 4 5 6 5 5 4 5 5 5 4 3 5 3 3 2 2 2 3 3 1 1 2 3 3 3 1 3
8 7 5 5 2 6 7 7 8 7 8 8 8 8 6 5 4 4 5 5 5 5 5 3 5 4 5 5 4 3 2 3 2 3 2 2 3 1 2 2 2 2 2
Wind_Direction
156 122 136 130 163 173 156 162 170 176 194 165 173 155 122 115 113 107 111 105 103 98 102 108 108 104 95 91 88 92 95 91 90 86 81 79 78 78 78 72 68 71 76
66 88 148 174 188 205 196 187 184 187 187 195 169 156 146 146 138 117 115 106 101 90 98 103 102 93 90 90 95 92 95 100 97 91 79 67 76 84 81 80 80 78 76
130 152 188 192 198 201 224 193 178 177 181 184 168 148 143 132 118 122 119 97 89 83 94 101 99 92 87 89 89 86 77 85 87 91 82 77 67 80 81 85 86 84 81
106 172 62 188 190 200 228 209 197 187 184 187 168 155 142 130 118 114 99 85 83 78 73 92 93 90 89 86 86 77 84 79 72 69 66 55 66 69 71 72 81 78 76
167 98 89 99 151 113 112 223 212 197 194 183 163 146 137 119 112 98 92 92 83 80 78 82 87 87 91 82 80 63 62 86 80 73 65 55 55 60 59 59 61 68 75
89 111 98 101 104 104 75 61 75 209 175 57 178 113 91 94 93 108 102 92 94 91 89 84 84 94 88 80 71 55 39 75 83 71 66 54 47 66 64 65 66 65 64
83 112 99 106 102 112 96 76 63 176 150 93 86 104 104 97 101 101 104 109 103 101 99 99 99 96 87 78 65 51 39 54 72 75 65 51 69 69 67 65 66 69 70
82 26 122 114 112 106 105 98 95 88 98 101 95 95 101 108 110 106 99 107 105 98 97 97 94 91 87 79 67 53 40 62 60 83 72 45 68 69 69 69 69 70 68
95 53 111 116 115 107 109 108 108 114 110 99 100 102 108 108 100 95 103 101 97 99 98 94 94 89 84 82 73 59 44 58 60 58 71 42 67 72 73 74 74 73 71
116 81 92 106 104 104 113 113 112 104 105 105 97 88 90 92 100 104 104 105 104 100 92 92 88 87 85 79 78 60 33 68 75 73 57 70 82 83 82 80 82 81 78
133 125 111 102 103 114 119 119 111 116 115 111 106 101 89 80 85 98 106 106 101 98 96 91 87 89 87 81 74 51 60 59 66 71 53 97 103 92 83 78 72 69 65
158 136 129 127 120 108 107 102 105 95 74 93 114 131 113 102 100 98 106 94 98 99 97 92 84 65 59 60 31 59 69 70 66 56 22 108 85 81 72 70 68 65 66
163 147 144 136 129 99 90 99 65 72 97 100 88 62 97 105 106 118 99 95 80 117 126 88 63 45 56 58 58 47 57 79 73 38 49 91 89 82 81 80 80 78 74
167 158 149 152 147 127 106 106 115 93 87 82 95 92 91 83 98 126 88 86 160 93 81 96 101 94 67 57 70 74 57 67 86 52 53 74 79 84 79 70 68 65 60
170 174 163 162 162 149 148 141 133 136 126 124 101 117 109 118 102 80 90 106 98 78 90 73 94 89 80 69 61 64 57 66 86 73 51 72 76 74 73 74 71 68 60
169 176 176 172 166 158 159 152 143 141 141 134 133 142 138 122 117 111 109 117 94 89 70 79 92 86 82 83 73 68 59 59 99 90 70 78 86 80 74 72 70 65 57
176 168 182 178 169 165 163 147 144 154 125 122 140 146 141 135 140 143 136 128 128 128 117 97 88 88 95 92 95 84 80 68 85 112 114 110 94 86 76 70 64 58 50
163 174 173 176 175 162 147 143 135 130 129 135 130 131 142 147 146 137 132 129 140 129 131 126 125 116 130 124 115 108 102 96 93 91 103 116 136 110 82 75 66 57 49
160 165 170 172 174 160 141 138 133 138 132 133 130 141 149 131 135 134 125 139 138 122 116 116 79 124 109 104 114 95 106 105 110 104 100 85 75 76 83 71 90 65 50
154 153 167 166 169 160 147 138 120 135 127 134 138 141 144 147 144 130 132 144 140 121 123 116 111 71 124 140 109 89 78 84 99 120 131 123 110 96 89 71 44 17 56
146 151 160 159 163 162 160 160 152 150 118 98 106 138 134 132 130 137 141 140 149 139 161 147 135 112 39 106 95 50 67 136 145 119 126 132 138 131 117 82 66 48 22
133 148 151 161 159 158 149 152 140 129 114 111 106 121 126 139 139 144 152 149 148 132 137 144 144 139 104 58 164 158 145 339 280 174 140 148 154 130 92 87 69 72 42
73 160 146 156 159 151 141 136 124 98 94 91 146 140 155 135 135 140 148 139 139 134 140 146 149 137 138 25 72 134 80 192 135 311 164 156 132 143 98 94 92 95 64
7 24 74 146 154 151 151 154 163 153 154 158 152 141 132 126 132 131 121 124 124 124 132 144 137 128 117 137 38 54 81 117 147 104 353 151 144 156 123 79 76 75 94
15 14 5 73 133 148 161 159 148 147 152 134 140 139 134 115 117 119 120 110 122 129 131 130 130 119 111 139 149 152 120 78 105 127 163 237 342 175 129 136 130 121 111
17 14 17 12 103 134 146 151 146 153 138 145 154 154 152 139 121 103 105 111 99 96 115 123 95 100 94 92 95 77 111 143 137 105 109 87 147 243 137 124 158 134 93